THAICOM 4

Last updated on Mon Sep 15 2025 00:02:46 GMT+0000 (Coordinated Universal Time)

1 28786U 05028A 25257.25225008 -.00000374 00000+0 00000+0 0 9994 2 28786 0.0175 154.5871 0002343 40.5863 8.6090 1.00270890 49480
UTC large
Height (km)
Speed (km/s)
/
Latitude / Longitude
Inclination (degrees)
Orbital Period (minutes)
Azimuth
Elevation
Range (km)
Doppler Factor

Next 0 passes for location: London (51.5072 / 0.1276)

Sorry there are no passes over London.